User: anonymous   Login
Location: Theydon Bois
(51.6750°N, 0.1050°E)
Time: 00:09:51
(UTC+00:00)
Language:

USA 267 - Orbit

View from above orbital plane
View from above orbital plane
View from above satellite
View from above satellite

Ground track
Ground track

The orbit data is extracted from the following two-line orbital elements,

1 41334U 16010A   18054.79559255 0.00000000  00000-0  00000-0 0    01
2 41334 123.0034 146.2463 0007728 145.7341 214.2658 13.41388614    02
Epoch (UTC): 23 February 2018 19:05:39
Eccentricity: 0.0007728
inclination: 123.0034°
perigee height: 1098 km
apogee height: 1110 km
right ascension of ascending node: 146.2463°
argument of perigee: 145.7341°
revolutions per day: 13.41388614
mean anomaly at epoch: 214.2658°
orbit number at epoch: 0

The dashed part of the orbit path shows where the satellite is in the earth's shadow,  

DLR